Location: ???????
(37.9763°N, 23.8889°E)
Time: 08:21:36
(UTC+00:00)

Meteor 2-13 Rocket - Pass Details

Date: 15 June 2024
Orbit: 936 x 957 km, 82.5° (Epoch: 22 July)

Event Time Altitude Azimuth Distance (km) Brightness Sun altitude
Rises 00:37:57 0° 352° (N) 3,612 8.2 -21.2°
Reaches altitude 10° 00:40:26 10° 353° (N) 2,667 7.5 -20.9°
Maximum altitude 00:46:33 89° 83° (E) 952 4.4 -20.3°
Enters shadow 00:50:23 24° 173° (S) 1,835 5.5 -19.8°
